Location: *
(57.8420°S, 159.8600°W)
Time: 03:09:25
(UTC+00:00)

Lacrosse 5 - Pass Details

Date: 18 May 2021
Orbit: 715 x 724 km, 57.0° (Epoch: 15 June)

Event Time Altitude Azimuth Distance (km) Brightness Sun altitude
Rises 03:56:40 0° 251° (WSW) 3,167 6.1 -11.4°
Reaches altitude 10° 03:59:11 10° 258° (WSW) 2,241 5.4 -11.8°
Maximum altitude 04:03:58 39° 326° (NW) 1,085 3.3 -12.4°
Drops below altitude 10° 04:08:43 10° 33° (NNE) 2,221 4.2 -13.0°
Sets 04:11:12 0° 40° (NE) 3,135 4.9 -13.3°
